ICEYE-X52

导读

ICEYE-X52是一颗合成孔径雷达卫星,发射国家暂未明确公布,计划于2025年6月23日发射。该卫星由芬兰ICEYE公司研制,延续了ICEYE系列卫星高分辨率合成孔径雷达成像技术,可不受光照、天气影响对地观测,将在灾害监测、资源勘探、海洋观测等领域提供持续遥感数据服务,进一步扩充ICEYE卫星星座的观测能力。

基本信息
目录编号:
64572
目录名称:
ICEYE-X52
国际标识:
2025-135AW
轨道中心:
EARTH
卫星名称:
ICEYE-X52
卫星全名:
ICEYE-X52
卫星状态:
在轨 (已飞行445 天)
发射日期:
2025-06-23 UTC
国别 :
(FI)
星等 :
--
该卫星已列入 空间交会检测服务 Space Conjunction Data Service (SCDS) ,当前飞行风险评估等级: 无高风险
轨道信息
数据来源 国际轨道数据
星历时间: 2026-09-11T06:48:34+0800
10小时前
查看轨道信息
半长轴: 6964.178km
偏心率: 0.0003133
轨道倾角: 97.781°
近地点辐角 65.421°
升交点赤经 7.301°
平近点角 294.734°
近地点: 583.859km
远地点: 588.223km
周期: 96.397分钟
每日圈数: 14.938191
详细信息
使用方式:
暂无
2D轨道图
3D轨道图
轨道高度分析图
轨道倾角分析图
轨道综合分析图
查看轨道综合分析图
交会数据列表
事件ID 空间交会对象 最接近时刻(TCA) 交会距离 交会风险概率(CRP) 交会风险指数(CRI) 操作
CDM_260910-030706-114506-457225
2026-09-10T
03:07:34+0000
1.871 km
极远距离
3.096237E-6 低风险 0.45
与全量物体交会距离演化趋势
与全量物体交会风险概率演化趋势